Weather History for Lanai City, HI

Change the Weather History Date:

Wednesday, November 13, 2013

  Actual Average Record
Temperature  
Mean Temperature 72 °F -  
Max Temperature 81 °F 78 °F 84 °F (2001)
Min Temperature 64 °F 64 °F 58 °F (1980)
Cooling Degree Days 8    
Growing Degree Days 22 (Base 50)    
Moisture  
Dew Point 61 °F    
Average Humidity 72    
Maximum Humidity 100    
Minimum Humidity 47    
Precipitation  
Precipitation 0.01 in - - ()
Sea Level Pressure  
Sea Level Pressure 29.97 in    
Wind  
Wind Speed 9 mph (NE)    
Max Wind Speed 13 mph    
Max Gust Speed -    
Visibility 10 miles    
Events Rain    
Averages and records for this station are not official NWS values.
T = Trace of Precipitation, MM = Missing Value Source: NWS Daily Summary

Daily Weather History Graph

Daily Weather History Graph

Search for Another Location

Airport:

Trip Planner

Search our weather history database for the weather conditions in past years. The results will help you decide how hot, cold, wet, or windy it might be!

Date:

Astronomy

Nov. 13, 2013 Rise Set
Actual Time 6:36 AM HST 5:47 PM HST
Civil Twilight 6:13 AM HST 6:10 PM HST
Nautical Twilight 5:46 AM HST 6:37 PM HST
Astronomical Twilight 5:20 AM HST 7:03 PM HST
Moon 3:17 PM HST (11/13) 3:08 AM HST (11/13)
Length of Visible Light 11h 56m
Length of Day
11h 10m
Waxing Gibbous, 86% of the Moon is Illuminated
Nov 13
Waxing Gibbous
Nov 17
Full
Nov 25
Last Quarter
Dec 2
New
Dec 9
First Quarter

Hourly Weather History & Observations

Time (HST) Temp. Heat Index Dew Point Humidity Pressure Visibility Wind Dir Wind Speed Gust Speed Precip Events Conditions
12:56 AM 64.9 °F - 59.0 °F 81% 29.97 in 10.0 mi NE 12.7 mph - N/A   Clear
1:56 AM 64.9 °F - 59.9 °F 84% 29.96 in 10.0 mi NE 11.5 mph - N/A   Partly Cloudy
2:56 AM 65.8 °F - 59.0 °F 79% 29.95 in 10.0 mi NE 11.5 mph - N/A   Partly Cloudy
3:56 AM 65.8 °F - 59.0 °F 79% 29.95 in 10.0 mi NE 12.7 mph - N/A   Partly Cloudy
4:56 AM 64.9 °F - 59.9 °F 84% 29.96 in 10.0 mi NE 10.4 mph - N/A   Clear
5:56 AM 65.8 °F - 59.9 °F 81% 29.97 in 10.0 mi NNE 12.7 mph - N/A   Clear
6:56 AM 65.8 °F - 59.9 °F 81% 29.99 in 10.0 mi NNE 10.4 mph - N/A   Clear
7:56 AM 70.9 °F - 61.0 °F 71% 29.99 in 10.0 mi NE 10.4 mph - N/A   Clear
8:56 AM 74.8 °F - 61.9 °F 64% 30.01 in 10.0 mi NE 11.5 mph - N/A   Clear
9:56 AM 75.9 °F - 57.9 °F 54% 30.01 in 10.0 mi NE 8.1 mph - N/A   Clear
10:56 AM 79.9 °F - 59.9 °F 50% 29.99 in 10.0 mi NNE 4.6 mph - N/A   Overcast
11:56 AM 81.0 °F 81.3 °F 59.0 °F 47% 29.98 in 10.0 mi West 8.1 mph - N/A   Partly Cloudy
12:56 PM 77.0 °F - 57.9 °F 52% 29.96 in 10.0 mi SSW 4.6 mph - N/A   Mostly Cloudy
1:56 PM 78.8 °F - 60.8 °F 54% 29.99 in 10.0 mi Variable 3.5 mph - N/A   Mostly Cloudy
2:56 PM 75.9 °F - 59.0 °F 56% 29.92 in 10.0 mi West 3.5 mph - N/A   Mostly Cloudy
3:56 PM 74.8 °F - 59.9 °F 60% 29.92 in 10.0 mi West 6.9 mph - N/A   Mostly Cloudy
4:56 PM 73.9 °F - 63.9 °F 71% 29.94 in 10.0 mi Calm Calm - N/A   Scattered Clouds
5:56 PM 72.0 °F - 61.9 °F 70% 29.95 in 10.0 mi Calm Calm - N/A   Mostly Cloudy
6:56 PM 70.9 °F - 63.0 °F 76% 29.96 in 10.0 mi ENE 5.8 mph - N/A   Scattered Clouds
7:56 PM 70.0 °F - 64.9 °F 84% 29.97 in 10.0 mi NE 6.9 mph - N/A   Partly Cloudy
8:56 PM 70.0 °F - 61.9 °F 75% 29.98 in 10.0 mi East 3.5 mph - N/A   Partly Cloudy
9:56 PM 68.0 °F - 63.9 °F 87% 29.98 in 9.0 mi ENE 5.8 mph - 0.01 in Rain Light Rain
10:56 PM 66.2 °F - 64.4 °F 94% 30.04 in 10.0 mi East 4.6 mph - N/A Rain Light Rain
11:56 PM 66.9 °F - 66.9 °F 100% 29.96 in 10.0 mi East 6.9 mph - 0.00 in Rain Light Rain